Weather in Sant Cugat del Valles

Spain     41°28′23″N   2°04′43″E
temp.,
°C
wind,
m/s
gust,
m/s
humid.,
%
clouds,
%
prec.,
mm/h
press.,
hPa
HPBL,
m
28 february, sun
sun2801:00+12ssw236789 0.0 1025684
04:00+11sse127668 0.0 1024210
07:00+10ssw018349 0.9 102552
10:00+12sse116744 0.8 1025559
13:00+15ese325238 0.8 10261108
16:00+15ese555267 0.0 10241044
19:00+13ese577033 0.0 1025636
22:00+11e35730 0.0 1026496
1 march, mon
mon101:00+10ene24750 0.0 1026346
04:00+9nne23740 0.0 1026176
07:00+9nne23749 0.0 1026160
10:00+12ene356541 0.0 1026818
13:00+14ese565555 0.0 1026966
16:00+15ese575213 0.0 1025946
19:00+13e486226 0.0 1026652
22:00+12e386875 0.0 1027712
2 march, tue
tue201:00+11ne136987 0.0 1027279
04:00+11nne126894 0.0 102781
07:00+11n246497 0.0 1027205
10:00+13e1354100 0.0 1029360
13:00+16e454595 0.0 1029856
16:00+16ese455192 0.0 1028667
19:00+13ese357296 0.0 1029431
22:00+12e138196 0.0 1030369
3 march, wed
wed301:00+12ne128198 0.0 1030149
04:00+11nne117961 0.0 103023
07:00+10nne117837 0.0 103024
10:00+12ese116731 0.0 1030367
13:00+15se325863 0.0 1029870
16:00+16sse3355100 0.0 1027829
19:00+13sse237169 0.0 1027557
22:00+12se11790 0.0 1027297
4 march, thu
thu401:00+11sse11870 0.0 102660
04:00+10se00922 0.0 102427
07:00+10n119213 0.1 102323
10:00+12n007528 0.0 1022452
13:00+14s225946 0.1 1021899
16:00+15s435792 0.0 1018913
19:00+13s236377 0.0 1018552
22:00+12ssw12741 0.0 1018395